#timestamp,LO_Frequency,Hit,StdDev 
1571072415.8,286046996.8,N
1571072435.7,286046995.2,N
1571072455.5,286046998.3,N
1571072475.3,286047000.7,N
1571072495.2,286046999.8,N
1571072515.0,286047002.5,N
1571072515.9,286047002.5,N
1571072535.8,286047002.2,N
1571072555.6,286047000.3,N
1571072575.4,286047000.8,N
1571072595.3,286046998.9,N
1571072615.1,286046997.6,N
1571072635.8,286046997.3,N
1571072655.7,286046997.0,N
1571072675.5,286046999.9,N
1571072695.4,286046998.1,N
1571072715.2,286047004.1,N
1571072735.0,286046998.5,N
1571072735.9,286046998.5,N
1571072755.8,286046997.3,N
1571072775.6,286046999.0,N
1571072795.4,286047001.0,N
1571072815.3,286047005.6,N
1571072835.1,286047007.4,N
1571072855.9,286047010.0,Y
1571072875.7,286047020.4,P
1571072895.5,286047022.2,N
1571072915.4,286047028.1,N
1571072935.2,286047026.4,N
1571072955.1,286047023.9,N
1571072956.0,286047037.5,Y
1571072975.8,286047006.0,P
1571072995.6,286047004.7,N
1571073015.5,286047006.0,N
1571073035.3,286047006.5,N
1571073055.2,286047006.8,N
1571073075.9,286047006.9,N
1571073095.7,286047008.5,N
1571073115.6,286047009.2,N
1571073135.4,286047009.0,N
1571073155.2,286047010.6,N
1571073175.1,286047011.9,N
1571073176.0,286047011.9,Y
1571073195.8,286047002.7,P
1571073215.7,286047003.1,N
1571073235.5,286047004.6,N
1571073255.3,286047008.9,Y
1571073275.2,286047007.3,P
1571073295.0,286047010.7,P
1571073295.9,286047010.7,P
1571073315.8,286047010.7,Y
1571073335.6,286047004.7,P
1571073355.4,286047004.6,N
1571073375.3,286047008.8,P
1571073395.1,286047010.3,Y
1571073415.9,286047005.1,P
1571073435.7,286047012.3,P
1571073455.5,286047012.1,P
1571073475.4,286047013.7,Y
1571073495.2,286047002.1,P
1571073515.0,286047002.2,N
1571073516.0,286047002.2,N
1571073535.8,286047000.3,N
1571073555.6,286047002.8,N
1571073575.5,286046998.5,N
1571073595.3,286046997.1,N
1571073615.1,286046997.1,N
1571073635.9,286046997.1,N
1571073655.7,286046993.5,N
1571073675.6,286046995.0,N
1571073695.4,286046995.6,N
1571073715.2,286046993.8,N
1571073735.1,286046992.7,N
1571073736.0,286046992.7,N
1571073755.8,286046993.0,N
1571073775.6,286046990.6,N
1571073795.5,286046994.2,N
1571073815.3,286046992.7,N
1571073835.1,286046990.9,N
1571073855.9,286046987.3,N
1571073875.7,286046984.0,Y
1571073895.6,286046986.7,P
1571073915.4,286046979.3,P
1571073935.2,286046980.8,N
1571073955.1,286046981.1,N
1571073956.0,286046981.1,Y
1571073975.8,286046997.6,P
1571073995.7,286046997.5,N
1571074015.5,286046994.9,N
1571074035.3,286046993.8,N
1571074055.2,286046992.0,N
1571074075.0,286046990.2,N
1571074075.9,286046990.2,N
1571074095.7,286046990.5,N
1571074115.6,286046989.1,N
1571074135.4,286046987.2,Y
1571074155.3,286046992.7,P
1571074175.1,286046990.3,P
1571074195.8,286046991.3,P
1571074215.7,286046988.2,Y
1571074235.5,286046997.9,P
1571074255.4,286046994.9,N
1571074275.2,286046992.4,N
1571074295.0,286046990.6,Y
1571074295.9,286046990.6,P
1571074315.8,286046995.5,N
1571074335.6,286046996.0,N
1571074355.5,286046993.5,Y
1571074375.3,286046999.0,P
1571074395.1,286046998.0,N
1571074415.9,286046994.5,N
1571074435.7,286046998.0,N
1571074455.6,286046995.8,N
1571074475.4,286046994.2,Y
1571074495.2,286046995.4,P
1571074515.1,286046993.7,P
1571074516.0,286046993.7,P
1571074535.8,286046991.6,Y
1571074555.7,286046993.5,P
1571074575.5,286046992.7,P
1571074595.3,286046991.5,P
1571074615.2,286046989.0,Y
1571074635.0,286046993.5,P
1571074635.9,286046993.5,P
1571074655.7,286046990.1,P
1571074675.6,286046990.4,Y
1571074695.4,286046997.7,P
1571074715.3,286046999.1,N
1571074735.1,286046995.7,N
1571074736.0,286046995.7,N
1571074755.8,286046997.7,N
1571074775.7,286046997.6,N
1571074795.5,286046995.4,N
1571074815.3,286046999.6,N
1571074835.2,286046998.3,N
1571074855.0,286046995.0,N
1571074855.9,286046995.0,N
1571074875.8,286046991.2,Y
1571074895.6,286046990.6,P
1571074915.4,286046988.9,P
1571074935.3,286046989.1,P
1571074955.1,286046988.8,Y
1571074975.9,286046996.6,P
1571074995.7,286046997.9,N
1571075015.5,286046997.3,N
1571075035.4,286046999.0,N
1571075055.2,286047002.2,N
1571075075.0,286047000.2,N
1571075075.9,286047000.2,N
1571075095.8,286046997.9,N
1571075115.6,286046995.7,N
1571075135.5,286046996.2,N
1571075155.3,286046997.5,N
1571075175.1,286046994.7,N
1571075195.9,286046988.6,Y
1571075215.7,286046992.8,P
1571075235.5,286046988.8,P
1571075255.4,286046988.3,P
1571075275.2,286046986.3,Y
1571075295.1,286046994.0,P
1571075296.0,286046994.0,P
1571075315.8,286046996.1,P
1571075335.6,286046997.5,N
1571075355.5,286046994.6,N
1571075375.3,286046986.3,Y
1571075395.2,286046996.2,P
1571075415.9,286046995.7,P
1571075435.7,286046993.1,P
1571075455.6,286046992.7,Y
1571075475.4,286046998.6,P
1571075495.2,286046998.6,N
1571075515.1,286046998.3,N
1571075516.0,286046998.3,N
1571075535.8,286047011.9,Y
1571075555.7,286047004.4,P
1571075575.5,286047003.0,N
1571075595.3,286047003.3,N
1571075615.2,286047003.2,N
1571075635.0,286047006.0,N
1571075635.9,286047006.0,N
1571075655.8,286047003.1,N
1571075675.6,286047003.1,N
1571075695.4,286047003.8,N
1571075715.3,286047007.5,Y
1571075735.1,286047002.4,P
1571075755.8,286047002.6,P
1571075775.7,286047000.2,N
1571075795.5,286046999.9,N
1571075815.4,286047005.9,Y
1571075835.2,286047001.5,P
1571075855.0,286046996.9,P
1571075855.9,286046996.9,N
1571075875.8,286046996.4,N
1571075895.6,286046995.6,N
1571075915.4,286046994.2,N
1571075935.3,286046994.3,N
1571075955.1,286046992.5,N
1571075975.9,286046992.5,N
1571075995.7,286046993.5,N
